^^
Grace C. Lehan Memorial Weather Station Historical Data
 
Daily Summary for July 25, 2021 Units:  English    Metric   Both
Daily Weekly Monthly Yearly
  Current: High: Low: Average:
Temperature: 70.1 °F 70.8 °F 69.1 °F 69.6 °F
Dew Point: 66.7 °F 66.7 °F 63.8 °F 65.1 °F
Humidity: 89% 89% 80% 86%
Wind Speed: 0mph 0mph 0mph 0mph
Wind Gust: 0mph 2mph - -
WindCalm - -
Pressure: 29.92 in 29.98 in 29.92 in -
Precipitation: 0.00 in      
 
 
Tabular Data for July 25, 2021
Time Temperature Dew Point Pressure Wind Wind Speed Wind Gust Humidity Rainfall Rate (Hourly) solar
00:04 70.8 °F 64.3 °F 29.98 in Calm     80% 0.00 in 0 W/m2
00:09 70.7 °F 64.2 °F 29.98 in Calm     80% 0.00 in 0 W/m2
00:14 70.7 °F 64.3 °F 29.98 in Calm     80.2% 0.00 in 0 W/m2
00:19 70.6 °F 64.1 °F 29.98 in Calm     80% 0.00 in 0 W/m2
00:24 70.4 °F 64.1 °F 29.98 in Calm     80.3% 0.00 in 0 W/m2
00:29 70.4 °F 64.3 °F 29.98 in Calm     81% 0.00 in 0 W/m2
00:34 70.3 °F 64.2 °F 29.98 in Calm     81% 0.00 in 0 W/m2
00:39 70.1 °F 64 °F 29.98 in Calm     81% 0.00 in 0 W/m2
00:44 70 °F 64.2 °F 29.98 in Calm     81.8% 0.00 in 0 W/m2
00:49 69.9 °F 64.1 °F 29.98 in Calm     82% 0.00 in 0 W/m2
00:54 69.7 °F 64 °F 29.98 in Calm     82% 0.00 in 0 W/m2
00:59 69.6 °F 63.9 °F 29.98 in Calm     82% 0.00 in 0 W/m2
01:04 69.5 °F 63.8 °F 29.98 in Calm     82% 0.00 in 0 W/m2
01:09 69.5 °F 64 °F 29.98 in Calm     82.9% 0.00 in 0 W/m2
01:14 69.4 °F 64 °F 29.98 in Calm     83% 0.00 in 0 W/m2
01:19 69.4 °F 64 °F 29.98 in Calm     83% 0.00 in 0 W/m2
01:24 69.3 °F 64.3 °F 29.98 in Calm     84% 0.00 in 0 W/m2
01:29 69.2 °F 64.2 °F 29.98 in Calm     84% 0.00 in 0 W/m2
01:34 69.2 °F 64.2 °F 29.98 in Calm     84% 0.00 in 0 W/m2
01:39 69.1 °F 64.2 °F 29.98 in Calm     84.2% 0.00 in 0 W/m2
01:44 69.1 °F 64.4 °F 29.98 in Calm     85% 0.00 in 0 W/m2
01:49 69.1 °F 64.4 °F 29.98 in Calm     85% 0.00 in 0 W/m2
01:54 69.1 °F 64.6 °F 29.97 in Calm     85.7% 0.00 in 0 W/m2
01:59 69.2 °F 64.8 °F 29.97 in Calm     86% 0.00 in 0 W/m2
02:04 69.2 °F 64.8 °F 29.97 in Calm     86% 0.00 in 0 W/m2
02:09 69.2 °F 65.2 °F 29.97 in Calm     86.9% 0.00 in 0 W/m2
02:14 69.3 °F 65.3 °F 29.97 in Calm     87% 0.00 in 0 W/m2
02:19 69.4 °F 65.3 °F 29.96 in Calm     87% 0.00 in 0 W/m2
02:24 69.4 °F 65.4 °F 29.96 in Calm   2 mph 87% 0.00 in 0 W/m2
02:29 69.5 °F 65.5 °F 29.95 in Calm   2 mph 87% 0.00 in 0 W/m2
02:34 69.5 °F 65.5 °F 29.95 in Calm   2 mph 87% 0.00 in 0 W/m2
02:39 69.4 °F 65.4 °F 29.95 in Calm     87% 0.00 in 0 W/m2
02:44 69.4 °F 65.4 °F 29.94 in Calm     87% 0.00 in 0 W/m2
02:49 69.3 °F 65.3 °F 29.94 in Calm     87% 0.00 in 0 W/m2
02:54 69.3 °F 65.6 °F 29.94 in Calm     88% 0.00 in 0 W/m2
02:59 69.3 °F 65.6 °F 29.94 in Calm     88% 0.00 in 0 W/m2
03:04 69.3 °F 65.6 °F 29.94 in Calm     88% 0.00 in 0 W/m2
03:09 69.4 °F 65.7 °F 29.94 in Calm     88% 0.00 in 0 W/m2
03:14 69.4 °F 65.7 °F 29.94 in Calm     88% 0.00 in 0 W/m2
03:19 69.4 °F 65.7 °F 29.94 in Calm     88% 0.00 in 0 W/m2
03:24 69.4 °F 65.9 °F 29.94 in Calm     88.5% 0.00 in 0 W/m2
03:29 69.4 °F 66 °F 29.94 in Calm     89% 0.00 in 0 W/m2
03:34 69.5 °F 66.1 °F 29.94 in Calm     89% 0.00 in 0 W/m2
03:39 69.5 °F 66.1 °F 29.93 in Calm     89% 0.00 in 0 W/m2
03:44 69.5 °F 66.1 °F 29.93 in Calm     89% 0.00 in 0 W/m2
03:49 69.5 °F 66.1 °F 29.93 in Calm     89% 0.00 in 0 W/m2
03:54 69.5 °F 66.2 °F 29.93 in Calm     89% 0.00 in 0 W/m2
03:59 69.6 °F 66.2 °F 29.93 in Calm     89% 0.00 in 0 W/m2
04:09 69.7 °F 66.3 °F 29.93 in Calm     89% 0.00 in 0 W/m2
04:14 69.7 °F 66.3 °F 29.93 in Calm     89% 0.00 in 0 W/m2
04:19 69.8 °F 66.4 °F 29.93 in Calm     89% 0.00 in 0 W/m2
04:24 69.8 °F 66.4 °F 29.92 in Calm     89% 0.00 in 0 W/m2
04:29 69.9 °F 66.5 °F 29.92 in Calm     89% 0.00 in 0 W/m2
04:34 70 °F 66.6 °F 29.92 in Calm     89% 0.00 in 0 W/m2
04:39 70 °F 66.6 °F 29.92 in Calm     89% 0.00 in 0 W/m2
04:43 70.1 °F 66.7 °F 29.92 in Calm     89% 0.00 in 0 W/m2
Hartford County Weather
Compliments of Weather Underground - 2 mb